De Queen, AR

10:28 AM CST on February 24, 2018 (GMT -0600)
Helms Sevier County

Weather History for KDEQ - September, 2012

Change the Weather History Date:

Saturday, September 22, 2012

  Actual Average Record
Temperature  
Mean Temperature 75 °F 71 °F  
Max Temperature 94 °F 84 °F 99 °F (2005)
Min Temperature 56 °F 59 °F 38 °F (1983)
Degree Days  
Heating Degree Days 0 0  
Month to date heating degree days 1 0  
Since 1 July heating degree days 1 0  
Cooling Degree Days 10 7  
Month to date cooling degree days 264 232  
Year to date cooling degree days 2016 1824  
Growing Degree Days 24 (Base 50)    
Moisture  
Dew Point 58 °F    
Average Humidity 65    
Maximum Humidity 100    
Minimum Humidity 30    
Precipitation  
Precipitation 0.00 in 0.12 in 3.93 in (1957)
Month to date precipitation 1.03 2.65  
Year to date precipitation 21.81 34.24  
Snow  
Snow 0.00 in - - ()
Month to date snowfall 0.0  
Since 1 July snowfall 0.0  
Since 1 September snowfall 0.0  
Snow Depth 0.00 in    
Sea Level Pressure  
Sea Level Pressure 30.02 in    
Wind  
Wind Speed - (North)    
Max Wind Speed -    
Max Gust Speed -    
Visibility 4 miles    
Events Fog    
T = Trace of Precipitation, MM = Missing Value Source: NWS Daily Summary

Daily Weather History Graph

Daily Weather History Graph

Search for Another Location

Airport or City:

Trip Planner

Search our weather history database for the weather conditions in past years. The results will help you decide how hot, cold, wet, or windy it might be!

Date:

Astronomy

Sep. 22, 2012 Rise Set
Actual Time 7:06 AM CDT 7:13 PM CDT
Civil Twilight 6:41 AM CDT 7:38 PM CDT
Nautical Twilight 6:11 AM CDT 8:07 PM CDT
Astronomical Twilight 5:42 AM CDT 8:37 PM CDT
Moon 2:08 PM CDT (9/22) No Moon Set
Length of Visible Light 12h 57m
Length of Day
12h 07m
Waxing Crescent, 49% of the Moon is Illuminated
Sep 22
Waxing Crescent
Sep 22
First Quarter
Sep 29
Full
Oct 8
Last Quarter
Oct 15
New

Hourly Weather History & Observations

Time (CDT) Temp. Heat Index Dew Point Humidity Pressure Visibility Wind Dir Wind Speed Gust Speed Precip Events Conditions
12:53 AM 62.1 °F - 59.0 °F 90% 29.94 in 7.0 mi North - - N/A   Clear
1:53 AM 61.0 °F - 59.0 °F 93% 29.96 in 5.0 mi North - - N/A   Clear
2:53 AM 60.1 °F - 57.9 °F 93% 29.96 in 6.0 mi North - - N/A   Clear
3:51 AM 59.0 °F - 57.2 °F 94% 29.99 in 1.8 mi North - - N/A   Clear
3:53 AM 59.0 °F - 57.9 °F 96% 29.98 in 1.8 mi North - - N/A   Clear
4:20 AM 59.0 °F - 57.2 °F 94% 29.99 in 0.8 mi North - - N/A   Clear
4:27 AM 59.0 °F - 57.2 °F 94% 29.99 in 2.0 mi North - - N/A   Clear
4:34 AM 59.0 °F - 57.2 °F 94% 30.00 in 3.0 mi North - - N/A   Clear
4:41 AM 59.0 °F - 57.2 °F 94% 30.00 in 2.5 mi North - - N/A   Clear
4:53 AM 59.0 °F - 59.0 °F 100% 29.99 in 1.0 mi North - - N/A   Clear
5:10 AM 57.2 °F - 57.2 °F 100% 30.01 in 0.2 mi North - - N/A Fog Fog
5:18 AM 57.2 °F - 57.2 °F 100% 30.01 in 0.2 mi North - - N/A Fog Fog
5:26 AM 57.2 °F - 57.2 °F 100% 30.01 in 0.5 mi North - - N/A Fog Fog
5:32 AM 59.0 °F - 57.2 °F 94% 30.02 in 2.5 mi North - - N/A   Clear
5:39 AM 57.2 °F - 57.2 °F 100% 30.02 in 4.0 mi North - - N/A   Clear
5:53 AM 59.0 °F - 57.0 °F 93% 30.01 in 4.0 mi North - - N/A   Clear
5:57 AM 57.2 °F - 57.2 °F 100% 30.02 in 1.8 mi North - - N/A   Clear
6:07 AM 57.2 °F - 57.2 °F 100% 30.03 in 0.5 mi North - - N/A Fog Fog
6:17 AM 57.2 °F - 55.4 °F 94% 30.03 in 0.2 mi North - - N/A Fog Fog
6:25 AM 57.2 °F - 55.4 °F 94% 30.03 in 1.0 mi North - - N/A   Mist
6:28 AM 57.2 °F - 55.4 °F 94% 30.03 in 2.0 mi North - - N/A   Partly Cloudy
6:40 AM 57.2 °F - 55.4 °F 94% 30.04 in 1.0 mi North - - N/A   Mist
6:43 AM 55.4 °F - 55.4 °F 100% 30.04 in 0.8 mi North - - N/A   Clear
6:53 AM 57.0 °F - 55.9 °F 96% 30.03 in 0.5 mi North - - N/A Fog Fog
7:09 AM 57.2 °F - 55.4 °F 94% 30.05 in 0.2 mi North - - N/A Fog Fog
7:19 AM 57.2 °F - 57.2 °F 100% 30.05 in 1.0 mi North - - N/A   Clear
7:23 AM 57.2 °F - 57.2 °F 100% 30.05 in 4.0 mi North - - N/A   Clear
7:29 AM 55.4 °F - 55.4 °F 100% 30.05 in 1.8 mi North - - N/A   Clear
7:35 AM 55.4 °F - 55.4 °F 100% 30.05 in 0.2 mi North - - N/A Fog Fog
8:01 AM 59.0 °F - 57.2 °F 94% 30.06 in 1.8 mi North - - N/A   Clear
8:08 AM 60.8 °F - 59.0 °F 94% 30.06 in 3.0 mi North - - N/A   Clear
8:53 AM 66.0 °F - 62.1 °F 87% 30.05 in 8.0 mi North - - N/A   Clear
9:53 AM 73.9 °F - 64.0 °F 71% 30.06 in 7.0 mi North - - N/A   Clear
10:53 AM 80.1 °F 81.1 °F 61.0 °F 52% 30.06 in 10.0 mi North - - N/A   Clear
11:53 AM 82.9 °F 82.8 °F 59.0 °F 44% 30.06 in 10.0 mi North - - N/A   Clear
12:53 PM 87.1 °F 86.7 °F 60.1 °F 40% 30.04 in 10.0 mi North - - N/A   Clear
1:53 PM 89.1 °F 88.2 °F 59.0 °F 36% 30.02 in 10.0 mi North - - N/A   Clear
2:53 PM 91.0 °F 90.0 °F 57.9 °F 33% 30.00 in 10.0 mi North - - N/A   Clear
3:53 PM 93.0 °F 92.0 °F 57.9 °F 31% 29.99 in 10.0 mi North - - N/A   Clear
4:53 PM 93.0 °F 91.7 °F 57.0 °F 30% 29.99 in 10.0 mi North - - N/A   Clear
5:53 PM 91.0 °F 90.0 °F 57.9 °F 33% 29.99 in 10.0 mi North - - N/A   Clear
6:53 PM 84.9 °F 85.0 °F 61.0 °F 44% 30.00 in 10.0 mi North - - N/A   Clear
7:53 PM 75.9 °F - 62.1 °F 62% 30.01 in 10.0 mi North - - N/A   Clear
8:53 PM 72.0 °F - 63.0 °F 73% 30.03 in 10.0 mi North - - N/A   Clear
10:53 PM 70.0 °F - 64.0 °F 81% 30.07 in 10.0 mi North - - N/A   Clear
11:53 PM 69.1 °F - 63.0 °F 81% 30.08 in 10.0 mi North - - N/A   Clear